Retour au catalogue

CZ-4B R/B

ActifPO
NORAD 44531·ROCKET BODY·🇨🇳 China

Lancé Sep 12, 2019 depuis Taiyuan Satellite Launch Center

Loading…

Prochains Passages (prochaines 24 heures)

TLE

FraisSource: Space-Track

Époque: Sep 14, 2026, 14:28 UTC

1 44531U 19059D   26257.60311944  .00003329  00000-0  14743-3 0  9990
2 44531  98.7032 302.8073 0130815 298.5354  60.2757 15.15181429383272

Suivez CZ-4B R/B en temps réel avec AllMySat

Download on the App Store